Creek Data

    Home     View Charts     View Raw Data     Messages

ID Distance Battery Voltage Battery Current Internal Temp Internal Humidity External Temp Solar Input rssi snr Time Stamp Record
35205 0.0 3.98 -5 48 40 49 0 -79 7 03/17/2025 03:00 AM 16961
35204 0.0 3.98 -34 48 40 49 0 -79 7 03/17/2025 02:45 AM 16960
35203 0.0 3.98 -5 48 40 48 0 -80 5 03/17/2025 02:30 AM 16959
35202 0.0 4.03 -5 48 40 49 0 -80 6 03/17/2025 02:16 AM 16958
35201 0.0 3.99 -5 49 40 49 0 -81 7 03/17/2025 02:00 AM 16957
35200 0.0 3.98 -5 49 40 49 0.1 -80 7 03/17/2025 01:45 AM 16956
35199 0.0 4.04 -5 49 41 49 0 -82 7 03/17/2025 01:30 AM 16955
35198 0.0 3.99 -5 50 41 50 0 -82 7 03/17/2025 01:15 AM 16954
35197 15.1 3.99 -5 50 41 50 0 -80 6 03/17/2025 01:00 AM 16953
35196 15.1 3.99 -5 52 41 51 0 -81 8 03/17/2025 12:15 AM 16950
35195 15.1 4.04 -5 53 41 52 0 -81 6 03/17/2025 12:00 AM 16949
35194 0.0 3.99 -5 55 40 55 0 -76 8 03/16/2025 11:45 PM 16948
35193 0.0 3.99 -5 55 40 55 0.1 -78 8 03/16/2025 11:30 PM 16947
35192 15.0 3.99 -5 55 40 56 0.1 -77 8 03/16/2025 11:15 PM 16946
35191 15.1 3.99 -5 55 40 56 0 -79 7 03/16/2025 11:00 PM 16945
35190 15.1 4.00 -5 55 40 56 0 -78 8 03/16/2025 10:45 PM 16944
35189 15.1 4.00 -5 54 41 55 0 -76 8 03/16/2025 10:30 PM 16943
35188 15.0 4.00 -5 55 40 56 0.1 -77 8 03/16/2025 10:15 PM 16942
35187 15.1 4.00 -5 54 41 56 0 -77 8 03/16/2025 10:00 PM 16941
35186 15.1 4.05 -5 54 41 55 0 -77 8 03/16/2025 09:45 PM 16940
35185 15.1 4.00 -5 55 41 56 0.1 -76 8 03/16/2025 09:30 PM 16939
35184 15.1 4.00 -5 55 41 56 0 -76 8 03/16/2025 09:15 PM 16938
35183 15.1 4.00 -5 56 41 56 0 -76 7 03/16/2025 09:00 PM 16937
35182 15.1 4.00 -5 57 41 57 0 -75 8 03/16/2025 08:45 PM 16936
35181 15.1 4.00 -5 57 41 57 0 -74 8 03/16/2025 08:30 PM 16935